Location: Stara Lesna
(49.1528°N, 20.2911°E)
Time: 18:12:21
(UTC+02:00)

Cosmos 1656 - Pass Details

Date: 13 July 2020
Orbit: 800 x 848 km, 71.1° (Epoch: 10 August)

Event Time Altitude Azimuth Distance (km) Brightness Sun altitude
Rises 03:05:32 0° 326° (NW) 3,318 7.1 -12.4°
Reaches altitude 10° 03:08:06 10° 318° (NW) 2,384 6.2 -12.2°
Maximum altitude 03:13:01 36° 253° (WSW) 1,251 4.2 -11.8°
Enters shadow 03:17:33 12° 190° (S) 2,248 5.4 -11.3°
